Location: Newark
(34.6283°N, 36.0776°E)
Time: 23:35:49
(UTC+00:00)

A-11 Canister half - Pass Details

Date: 24 September 2019
Orbit: 1527 x 1682 km, 47.3° (Epoch: 20 October)

Event Time Altitude Azimuth Distance (km) Brightness Sun altitude
Rises 00:52:16 0° 246° (WSW) 4,671 - -31.3°
Reaches altitude 10° 00:55:19 10° 249° (WSW) 3,695 - -30.7°
Exits shadow 01:02:23 53° 278° (W) 1,846 9.0 -29.4°
Maximum altitude 01:04:35 66° 331° (NNW) 1,675 9.0 -29.0°
Drops below altitude 10° 01:14:07 10° 53° (NE) 3,794 12.0 -27.2°
Sets 01:17:19 0° 56° (NE) 4,802 12.8 -26.6°
